Weather in Petrovskoe

Russia / Tambov Oblast     52°37′55″N   40°15′16″E
temp.,
°C
wind,
m/s
gust,
m/s
humid.,
%
clouds,
%
prec.,
mm/h
press.,
hPa
HPBL,
m
24 january, mon
mon2400:00−10nne41194100 0.0 1030203
03:00−9nne5139499 0.0 1031266
06:00−8ne5129496 0.3 1030332
09:00−8ne5109589 0.4 1031322
12:00−6ne5109474 0.3 1031365
15:00−7ne5109268 0.3 1031361
18:00−10ne41094100 0.0 1031175
21:00−13ne37956 0.0 1031102
25 january, tue
tue2500:00−15ene37975 0.0 103085
03:00−18ene229942 0.0 102934
06:00−19ne2210052 0.0 102812
09:00−17e229999 0.0 102736
12:00−10se129486 0.0 1025138
15:00−9s129490 0.1 1023162
18:00−12sse1199100 0.1 102110
21:00−10sw2496100 0.3 1020132
26 january, wed
wed2600:00−10sw3696100 0.4 1019227
03:00−9wsw3696100 0.8 1018290
06:00−10sw2596100 0.4 1018212
09:00−11sw2496100 0.4 1018109
12:00−9sw3592100 0.0 1018232
15:00−9sw3693100 0.0 1018276
18:00−11sw259679 0.0 101968
21:00−13sw369667 0.0 101981
27 january, thu
thu2700:00−14sw359880 0.0 102068
03:00−15sw259986 0.1 102059
06:00−14sw259885 0.1 102076
09:00−13sw259675 0.1 1020110
12:00−10ssw349491 0.1 1019200
15:00−10s359679 0.1 1019167
18:00−14s359981 0.0 101962
21:00−14s3798100 0.1 101897
28 january, fri
fri2800:00−15s3797100 0.0 1017109
03:00−15s389863 0.0 1017113
06:00−15s4109862 0.0 1015137
09:00−13s5139666 0.0 1014239
12:00−9s61592100 0.0 1012407
15:00−7sse71493100 0.1 1009478
18:00−6s71395100 0.9 1007536
21:00−5sse61295100 1.8 1006423